Location: Bushey
(51.6333°N, 0.3667°W)
Time: 12:10:21
(UTC+00:00)

Cosmos 2322 Rocket - Visible Passes

Search period start: 16 June 2021 00:00
Search period end: 26 June 2021 00:00
Orbit: 831 x 852 km, 71.0° (Epoch: 15 June)

Date Brightness Start Highest point End Pass type
(mag) Time Alt. Az. Time Alt. Az. Time Alt. Az.
16 Jun 5.3 01:37:01 10° NNW 01:38:30 11° N 01:40:00 10° N visible
16 Jun 2.5 21:46:13 10° SW 21:51:56 76° WNW 21:57:41 10° NNE visible
16 Jun 4.7 23:32:35 10° W 23:36:57 22° NW 23:41:21 10° NNE visible
17 Jun 5.4 01:21:49 10° NNW 01:23:22 11° N 01:24:56 10° N visible
17 Jun 2.4 21:31:09 10° SSW 21:36:52 79° WNW 21:42:37 10° NNE visible
17 Jun 4.7 23:17:24 10° W 23:21:51 23° NW 23:26:19 10° NNE visible
18 Jun 5.4 01:06:37 10° NNW 01:08:15 11° N 01:09:52 10° N visible
18 Jun 5.3 02:52:25 10° N 02:55:06 13° NNE 02:57:45 10° NE visible
18 Jun 2.4 21:16:06 10° SSW 21:21:49 82° WNW 21:27:34 10° NNE visible
18 Jun 4.7 23:02:15 10° W 23:06:46 23° NW 23:11:16 10° NNE visible
19 Jun 5.4 00:51:25 10° NNW 00:53:07 11° N 00:54:49 10° N visible
19 Jun 5.4 02:37:23 10° N 02:39:58 13° NNE 02:42:33 10° NE visible
19 Jun 4.7 22:47:05 10° W 22:51:40 24° NW 22:56:14 10° NNE visible
20 Jun 5.5 00:36:12 10° NNW 00:37:59 11° N 00:39:46 10° N visible
20 Jun 5.4 02:22:21 10° N 02:24:51 13° NNE 02:27:20 10° NE visible
20 Jun 4.7 22:31:56 10° W 22:36:34 25° NW 22:41:12 10° NNE visible
21 Jun 5.5 00:21:00 10° NNW 00:22:51 11° NNW 00:24:43 10° N visible
21 Jun 5.5 02:07:18 10° N 02:09:43 13° NNE 02:12:08 10° NE visible
21 Jun 4.7 22:16:47 10° W 22:21:27 25° NW 22:26:09 10° NNE visible
22 Jun 5.5 00:05:47 10° NNW 00:07:43 12° NNW 00:09:40 10° N visible
22 Jun 5.6 01:52:16 10° N 01:54:36 12° NNE 01:56:56 10° NE visible
22 Jun 4.7 22:01:38 10° W 22:06:22 26° NW 22:11:07 10° NNE visible
22 Jun 5.6 23:50:35 10° NW 23:52:35 12° NNW 23:54:36 10° N visible
23 Jun 5.6 01:37:13 10° N 01:39:28 12° NNE 01:41:42 10° NE visible
23 Jun 4.7 21:46:29 10° W 21:51:16 27° NW 21:56:05 10° NNE visible
23 Jun 5.6 23:35:22 10° NW 23:37:27 12° NNW 23:39:34 10° N visible
24 Jun 5.7 01:22:11 10° N 01:24:20 12° NNE 01:26:29 10° NE visible
24 Jun 4.7 21:31:20 10° W 21:36:11 27° NW 21:41:03 10° NNE visible
24 Jun 5.7 23:20:10 10° NW 23:22:21 12° NNW 23:24:31 10° N visible
25 Jun 5.8 01:07:08 10° N 01:09:13 12° NNE 01:11:17 10° NE visible
25 Jun 4.8 02:50:37 10° NNW 02:55:24 27° NE 03:00:10 10° E visible
25 Jun 4.7 21:16:12 10° W 21:21:05 28° NW 21:26:00 10° NNE visible
25 Jun 5.7 23:04:57 10° NW 23:07:13 12° NNW 23:09:28 10° N visible
